Location: El Azufral
(10.3513°N, 67.1528°W)
Time: 18:37:40
(UTC+00:00)

Cosmos 1302 Rocket - Pass Details

Date: 13 June 2024
Orbit: 753 x 774 km, 74.0° (Epoch: 24 July)

Event Time Altitude Azimuth Distance (km) Brightness Sun altitude
Rises 23:16:13 0° 352° (N) 3,223 7.7 -6.6°
Reaches altitude 10° 23:18:36 10° 355° (N) 2,300 6.9 -7.1°
Maximum altitude 23:23:47 65° 77° (ENE) 846 4.0 -8.2°
Drops below altitude 10° 23:28:59 10° 158° (SSE) 2,312 6.1 -9.4°
Enters shadow 23:30:56 - 161° (SSE) 3,067 6.7 -9.8°
